This demonstration page uses our WeatherBlox Daily Observations layout. Learn more.

Left ArrowRight Arrow

Hourly Observations for August 6, 2017

Temp ( °F °C ) Dew Point ( °F °C ) Humidity (%) Winds ( mph kmh ) Pressure ( in mb ) Visibility ( mi km ) Precip ( " mm )
12:15 am 00:15 Clear 58 14.3 57 13.9 97 97 Calm 30.06 1018 10 16 0.00 0.00
12:35 am 00:35 Clear 57 14.1 57 13.7 97 97 Calm 30.06 1018 10 16 0.00 0.00
12:55 am 00:55 Clear 58 14.5 57 14 97 97 Calm 30.06 1018 10 16 0.00 0.00
1:15 am 01:15 Clear 58 14.5 57 14.1 97 97 Calm 30.06 1018 10 16 0.00 0.00
1:35 am 01:35 Partly Cloudy 59 15 58 14.5 97 97 Calm 30.06 1018 10 16 0.00 0.00
1:55 am 01:55 Mostly Cloudy 60 15.4 59 14.9 97 97 Calm 30.06 1018 10 16 0.00 0.00
2:15 am 02:15 Mostly Cloudy 60 15.5 59 15 97 97 Calm 30.06 1018 10 16 0.00 0.00
2:35 am 02:35 Partly Cloudy 60 15.3 59 15 98 98 Calm 30.06 1018 10 16 0.00 0.00
2:55 am 02:55 Partly Cloudy 59 15.1 59 14.8 98 98 Calm 30.06 1018 10 16 0.00 0.00
3:15 am 03:15 Mostly Cloudy 59 15.2 59 15 99 99 Calm 30.06 1018 10 16 0.00 0.00
3:35 am 03:35 Mostly Cloudy 59 15.1 59 14.8 98 98 Calm 30.06 1018 10 16 0.00 0.00
3:55 am 03:55 Cloudy 59 15 58 14.6 97 97 Calm 30.06 1018 10 16 0.00 0.00
4:15 am 04:15 Mostly Cloudy 59 15 58 14.6 97 97 Calm 30.06 1018 10 16 0.00 0.00
4:35 am 04:35 Partly Cloudy 58 14.6 58 14.4 99 99 Calm 30.06 1018 10 16 0.00 0.00
4:55 am 04:55 Clear 59 14.8 58 14.5 98 98 Calm 30.06 1018 10 16 0.00 0.00
5:15 am 05:15 Mostly Cloudy 59 15 58 14.7 98 98 Calm 30.06 1018 10 16 0.00 0.00
5:35 am 05:35 Mostly Cloudy 59 15 58 14.6 97 97 Calm 30.06 1018 10 16 0.00 0.00
5:55 am 05:55 Cloudy 59 15 58 14.7 98 98 Calm 30.06 1018 10 16 0.00 0.00
6:15 am 06:15 Mostly Cloudy 59 15.2 59 14.9 98 98 Calm 30.06 1018 10 16 0.00 0.00
6:35 am 06:35 Partly Cloudy 59 15.2 59 15 99 99 Calm 30.06 1018 10 16 0.00 0.00
6:55 am 06:55 Mostly Cloudy 60 15.5 59 15.2 98 98 Calm 30.06 1018 10 16 0.00 0.00
7:15 am 07:15 Cloudy 60 15.8 60 15.4 97 97 Calm 30.06 1018 10 16 0.00 0.00
7:35 am 07:35 Mostly Cloudy 61 16 60 15.5 97 97 Calm 30.06 1018 10 16 0.00 0.00
7:55 am 07:55 Cloudy 61 16.2 60 15.7 97 97 Calm 30.06 1018 10 16 0.00 0.00
8:15 am 08:15 Cloudy 62 16.6 60 15.7 94 94 Calm 30.06 1018 10 16 0.00 0.00
8:35 am 08:35 Mostly Cloudy 62 16.9 60 15.6 92 92 Calm 30.06 1018 10 16 0.00 0.00
8:55 am 08:55 Partly Cloudy 64 17.5 61 16.1 92 92 Calm 30.06 1018 10 16 0.00 0.00
9:15 am 09:15 Partly Cloudy 64 17.8 61 16.1 90 90 Calm 30.06 1018 10 16 0.00 0.00
9:35 am 09:35 Sunny 65 18.1 61 16.2 89 89 ESE 3 6 30.06 1018 10 16 0.00 0.00
9:55 am 09:55 Mostly Cloudy 65 18.5 60 15.8 84 84 SE 5 7 30.06 1018 10 16 0.00 0.00
10:15 am 10:15 Cloudy 65 18.3 60 15.8 85 85 S 3 6 30.06 1018 10 16 0.00 0.00
10:35 am 10:35 Cloudy 65 18.3 60 15.6 84 84 ESE 3 6 30.06 1018 10 16 0.00 0.00
10:55 am 10:55 Cloudy 65 18.6 61 16 85 85 Calm 30.06 1018 10 16 0.00 0.00
11:15 am 11:15 Cloudy 66 18.7 60 15.4 81 81 SSE 3 6 30.06 1018 10 16 0.00 0.00
11:35 am 11:35 Cloudy 65 18.6 60 15.6 83 83 SE 3 6 30.06 1018 10 16 0.00 0.00
11:55 am 11:55 Cloudy 66 19 60 15.7 81 81 SE 5 7 30.06 1018 10 16 0.00 0.00
12:15 pm 12:15 Cloudy 66 18.8 59 15.1 79 79 SE 6 9 30.06 1018 10 16 0.00 0.00
12:35 pm 12:35 Cloudy 66 19.1 60 15.5 80 80 SE 7 11 30.06 1018 10 16 0.00 0.00
12:55 pm 12:55 Cloudy 67 19.3 59 15.1 77 77 SSE 6 9 30.06 1018 10 16 0.00 0.00
1:15 pm 13:15 Cloudy 67 19.5 59 15 75 75 SSE 7 11 30.06 1018 10 16 0.00 0.00
1:35 pm 13:35 Cloudy 67 19.7 60 15.3 76 76 SSE 5 7 30.06 1018 10 16 0.00 0.00
1:55 pm 13:55 Cloudy 68 19.8 60 15.4 76 76 SSE 5 7 30.06 1018 10 16 0.00 0.00
2:15 pm 14:15 Cloudy 68 20.2 60 15.8 76 76 SE 6 9 30.06 1018 10 16 0.00 0.00
2:35 pm 14:35 Cloudy 68 20 60 15.4 75 75 SSE 5 7 30.06 1018 10 16 0.00 0.00
2:55 pm 14:55 Cloudy 68 20 58 14.6 71 71 SE 5 7 30.06 1018 10 16 0.00 0.00
3:15 pm 15:15 Cloudy 68 20.1 58 14.7 71 71 SE 5 7 30.06 1018 10 16 0.00 0.00
3:35 pm 15:35 Cloudy 68 20 58 14.6 71 71 SE 5 7 30.06 1018 10 16 0.00 0.00
3:55 pm 15:55 Cloudy 68 19.9 58 14.7 72 72 SE 6 9 30.06 1018 10 16 0.00 0.00
4:15 pm 16:15 Cloudy 67 19.6 58 14.7 73 73 SE 5 7 30.06 1018 10 16 0.00 0.00
4:35 pm 16:35 Cloudy 68 19.8 60 15.6 77 77 E 3 6 30.06 1018 10 16 0.00 0.00
4:55 pm 16:55 Cloudy 68 20.2 60 15.8 76 76 E 6 9 30.06 1018 10 16 0.00 0.00
5:15 pm 17:15 Cloudy 71 21.4 59 14.9 67 67 E 9 15 30.06 1018 10 16 0.00 0.00
5:35 pm 17:35 Cloudy 69 20.5 58 14.6 69 69 E 7 11 30.06 1018 10 16 0.00 0.00
5:55 pm 17:55 Cloudy 68 20.2 58 14.3 69 69 ESE 5 7 30.03 1017 10 16 0.00 0.00
6:15 pm 18:15 Cloudy 69 20.6 58 14.7 69 69 ESE 6 9 30.03 1017 10 16 0.00 0.00
6:35 pm 18:35 Cloudy 69 20.6 58 14.7 69 69 ESE 7 11 30.03 1017 10 16 0.00 0.00
6:55 pm 18:55 Cloudy 69 20.5 59 14.8 70 70 ESE 8 13 30.03 1017 10 16 0.00 0.00
7:15 pm 19:15 Cloudy 68 20.1 58 14.2 69 69 SE 5 7 30.03 1017 10 16 0.00 0.00
7:35 pm 19:35 Cloudy 68 20.1 58 14.6 71 71 SE 7 11 30.03 1017 10 16 0.00 0.00
7:55 pm 19:55 Cloudy 67 19.6 58 14.6 73 73 SE 5 7 30.03 1017 10 16 0.00 0.00
8:15 pm 20:15 Mostly Cloudy 67 19.3 59 14.8 75 75 ESE 5 7 30.03 1017 10 16 0.00 0.00
8:35 pm 20:35 Partly Cloudy 66 18.7 59 15 79 79 ESE 5 7 30.03 1017 10 16 0.00 0.00
8:55 pm 20:55 Clear 63 17.3 59 15 86 86 E 3 6 30.03 1017 10 16 0.00 0.00
9:15 pm 21:15 Partly Cloudy 62 16.8 59 15 89 89 E 3 6 30.03 1017 10 16 0.00 0.00
9:35 pm 21:35 Cloudy 63 17.2 60 15.4 89 89 E 5 7 30.03 1017 10 16 0.00 0.00
9:55 pm 21:55 Cloudy 64 17.7 60 15.5 87 87 ESE 5 7 30.03 1017 10 16 0.00 0.00
10:15 pm 22:15 Cloudy 64 17.8 60 15.5 86 86 ESE 5 7 30.03 1017 10 16 0.00 0.00
10:35 pm 22:35 Cloudy 64 17.9 60 15.3 85 85 Calm 30.03 1017 10 16 0.00 0.00
10:55 pm 22:55 Cloudy 64 17.5 60 15.7 89 89 SE 3 6 30.06 1018 10 16 0.00 0.00
11:15 pm 23:15 Cloudy 63 17.3 60 15.7 90 90 Calm 30.06 1018 10 16 0.00 0.00
11:35 pm 23:35 Cloudy 63 17.3 60 15.6 90 90 E 3 6 30.03 1017 10 16 0.00 0.00
11:55 pm 23:55 Cloudy 63 17.2 60 15.4 89 89 E 3 6 30.03 1017 10 16 0.00 0.00

Powered by AerisWeather